Regional Weather Roundup
Issued by NWS

Home | Current Version | Previous Version | Graphics & Text | Print | Product List | Glossary On
Versions: 1 2 3 4 5 6 7 8 9 10 11 12 13 14 15 16 17 18 19 20 21 22 23 24 25 26 27 28 29 30 31 32 33 34 35 36 37 38 39 40 41 42 43 44 45 46 47 48 49 50
001
ASUS43 KIND 231059
RWRIN

WEATHER ROUNDUP FOR INDIANA
NATIONAL WEATHER SERVICE INDIANAPOLIS IN
600 AM EST TUE JAN 23 2018

NOTE: "FAIR" INDICATES FEW OR NO CLOUDS BELOW 12,000 FEET WITH NO
SIGNIFICANT WEATHER AND/OR OBSTRUCTIONS TO VISIBILITY.

* - STATION DOES NOT REPORT WEATHER SUCH AS PRECIPITATION OR FOG.

+ - STATION NOT QUALITY CONTROLLED BY THE NATIONAL WEATHER SERVICE.
    USE DATA WITH CAUTION...ESPECIALLY DEWPOINT AND RELATIVE
    HUMIDITY OBSERVATIONS.

INZ001>003-010>013-019-020-231200-
NORTHWEST INDIANA

CITY           SKY/WX    TMP DP  RH WIND       PRES   REMARKS
GARY /AIRPORT/ LGT RAIN  37  34  87 W15       29.57R WCI  28
KNOX *+        CLOUDY    36  32  87 SW12      29.58R WCI  27
MICHIGAN CITY+ CLOUDY    36  34  93 SW7       29.57R WCI  30
MONTICELLO +   CLOUDY    36  35  96 SW9       29.61R WCI  29
RENSSELAER +   CLOUDY    36  32  87 SW14      29.61R WCI  27

$$

LMZ046-743>745-231200-
SOUTHERN LAKE MICHIGAN

STATION/POSITION TIME  TEMP    WIND        PRES    WAVE
                       AIR SEA DIR/SP/G            HT
                 (UTC) (F)     (DEG/KT/KT) (MB)    (FT)
BURNS HARBOR     1040   37     230/ 13/ 17 1001.7R
MICHIGAN CITY    1030   36     230/ 18/ 19   N/A

$$

INZ004-005-014>016-021>024-231200-
NORTH CENTRAL INDIANA

CITY           SKY/WX    TMP DP  RH WIND       PRES   REMARKS
GOSHEN         LGT RAIN  36  33  89 SW15      29.56R WCI  27
PERU/GRISSOM   CLOUDY    35  35 100 SW14      29.61R WCI  26
SOUTH BEND     CLOUDY    35  32  88 SW10      29.56R WCI  27

$$

INZ006>009-017-018-025>027-231200-
NORTHEAST INDIANA

CITY           SKY/WX    TMP DP  RH WIND       PRES   REMARKS
FORT WAYNE     LGT RAIN  37  35  92 SW10      29.60R WCI  30
KENDALLVILLE + LGT RAIN  34  34  98 SW12      29.56S WCI  26

$$

INZ028-029-035-036-043>045-051>053-231200-
WEST CENTRAL INDIANA

CITY           SKY/WX    TMP DP  RH WIND       PRES   REMARKS
CRAWFORDSVL +  CLOUDY    32  32 100 MISG      29.66R
GREENCASTLE +  LGT SNOW  32  32 100 SW9       29.68R WCI  24
LAFAYETTE      CLOUDY    35  33  92 SW13      29.64R WCI  26
TERRE HAUTE    LGT SNOW  33  31  92 SW10      29.70R FOG     WCI  25

$$

INZ030>032-037>040-046>048-054>057-064-065-231200-
CENTRAL INDIANA

CITY           SKY/WX    TMP DP  RH WIND       PRES   REMARKS
GREENWOOD *+   MOCLDY    38  32  81 W15G23    29.67R WCI  29
INDIANAPOLIS   CLOUDY    35  32  88 SW18      29.66R WCI  24
-EAGLE CREEK   CLOUDY    36  30  79 SW12G22   29.65R WCI  28
MT COMFORT *+  FAIR      34  34 100 SW10G18   29.66R WCI  26
SHELBYVILLE    CLOUDY    38  33  82 SW12      29.66R WCI  30

$$

INZ033-034-041-042-049-050-058-059-231200-
EAST CENTRAL INDIANA

CITY           SKY/WX    TMP DP  RH WIND       PRES   REMARKS
MUNCIE         CLOUDY    38  34  85 SW9       29.63R WCI  31
RICHMOND +     CLOUDY    34  34 100 SW13      29.65S WCI  25

$$

INZ060-061-067>069-081>083-085>088-231200-
SOUTHWEST INDIANA

CITY           SKY/WX    TMP DP  RH WIND       PRES   REMARKS
EVANSVILLE     CLOUDY    39  30  70 W17G30    29.79R WCI  30
HUNTINGBURG +  CLOUDY    39  31  72 W17       29.77R WCI  30

$$

INZ062-063-066-070>080-084-089>092-231200-
SOUTH CENTRAL AND SOUTHEAST INDIANA

CITY           SKY/WX    TMP DP  RH WIND       PRES   REMARKS
BLOOMINGTON    LGT SNOW  35  30  82 W13G22    29.70R WCI  26
FRENCH LICK *+ CLOUDY    36  30  80 SW17G29   29.74R WCI  25
MADISON *+     CLOUDY    37  30  75 SW15G24   29.74R WCI  28
SEYMOUR +      DRIZZLE   39  32  75 SW16      29.71R WCI  30

$$





USA.gov is the U.S. government's official web portal to all federal, state and local government web resources and services.